[[{"header":{"parameterUnit":"m.s-1","parameterCategory":1,"la1":30.2991,"la2":30.254,"lo1":-89.0895,"lo2":-89.0444,"dy":0.0017,"dx":0.0017,"nx":28,"ny":28,"refTime":"2025-07-29T09:00:00:Z","depth":0,"parameterNumber":2,"parameterNumberName":"U-component_of_WINDS"},"data":[0,0,0,0,0,0,0,0,0,0,0,0,0,0,0,0,0,0,0,0,0,0,0,0,0,0,0,0,0,0,0,0,0,0,0,0,0,0,0,0,0,0,0,0,0,0,0,0,0,0,0,0,0,0,0,0,0,0,1.2611,1.2607,0,1.2306,1.2302,1.2299,1.2084,1.2082,1.208,1.2079,1.1742,1.1735,1.1727,0,0,0,0,0,0,0,0,0,0,0,0,0,1.2985,1.2979,1.2611,1.2607,1.2603,1.2306,1.2302,1.2298,1.2084,1.2082,1.208,1.2078,1.1744,1.1736,1.1727,0,0,0,0,0,0,0,0,0,0,0,0,0,1.2765,1.2977,1.2612,1.2461,1.2445,1.2307,1.2302,1.2297,1.2084,1.2082,1.2079,1.2077,1.1747,1.1736,1.1725,1.1705,0,0,1.1691,1.1686,0,0,0,0,0,0,0,0,1.2778,1.2751,1.2487,1.2471,1.2453,1.2231,1.231,1.2098,1.2085,1.222,1.2079,1.2076,1.1905,1.1881,1.1828,1.169,1.1675,1.169,1.1683,1.1679,1.1675,0,0,0,0,0,0,0,1.2793,1.2763,1.2489,1.2483,1.2462,1.2401,1.2368,1.2269,1.2079,1.2208,1.2192,1.216,1.1895,1.1839,1.1818,1.167,1.1691,1.1681,1.1674,1.1669,1.1496,1.1498,0,0,0,0,0,0,1.2835,1.2777,1.2499,1.248,1.2613,1.2397,1.2359,1.2304,1.208,1.2044,1.2163,1.2151,1.186,1.1832,1.1806,1.1767,1.1679,1.1668,1.1662,1.1494,1.1496,1.1499,0,0,0,0,0,0,1.2844,1.2813,1.2511,1.2624,1.2582,1.2393,1.2333,1.2299,1.2244,1.2046,1.2008,1.2143,1.1857,1.1821,1.1733,1.1752,1.1663,1.1653,1.1491,1.1495,1.1497,1.169,0,0,0,0,0,0,1.2856,1.2817,1.2813,1.2626,1.2577,1.2452,1.2334,1.2295,1.2228,1.2211,1.2017,1.1982,1.1852,1.1751,1.1722,1.1735,1.1644,1.1489,1.1493,1.1496,1.1681,1.1699,1.1715,0,0,0,0,0,1.287,1.2875,1.2814,1.2782,1.2569,1.2454,1.2424,1.2282,1.2231,1.2222,1.2094,1.1988,1.1755,1.1744,1.1709,1.1719,1.1487,1.1492,1.1496,1.1673,1.1696,1.1715,0,0,0,0,0,0,1.306,1.2847,1.2778,1.2724,1.261,1.2418,1.2403,1.231,1.2201,1.2188,1.2007,1.1965,1.1895,1.1797,1.1789,1.1686,1.1607,1.1605,1.1754,1.1773,1.179,1.1814,1.1635,0,0,0,0,0,1.3098,1.303,1.2844,1.2813,1.2761,1.2593,1.2536,1.2437,1.2308,1.2256,1.2121,1.1993,1.189,1.1826,1.172,1.1665,1.1617,1.1654,1.1671,1.1686,1.1686,1.1647,1.166,1.1514,1.1514,1.1514,0,0,1.3171,1.3046,1.3013,1.2849,1.2749,1.2675,1.2553,1.248,1.2421,1.2241,1.2153,1.2049,1.1893,1.1822,1.1783,1.1738,1.1716,1.1692,1.1706,1.1697,1.1653,1.1667,1.168,1.1517,1.1517,1.1516,0,0,1.3268,1.3169,1.3133,1.3036,1.2889,1.2777,1.2769,1.2591,1.2518,1.2428,1.2291,1.2213,1.2041,1.1936,1.186,1.1917,1.1814,1.1886,1.1974,1.1938,1.195,1.1959,1.1977,1.1986,1.1887,1.1887,1.1888,0,1.3376,1.3268,1.3124,1.3061,1.2991,1.2833,1.2791,1.2701,1.2524,1.2475,1.2429,1.221,1.2093,1.1994,1.2009,1.1953,1.1932,1.1908,1.1962,1.1969,1.1975,1.1991,1.1998,1.1897,1.1896,1.1895,1.1894,0,1.3407,1.3334,1.3321,1.3164,1.3091,1.3039,1.288,1.2822,1.2728,1.2619,1.2525,1.2381,1.2243,1.2211,1.2115,1.2097,1.2074,1.1998,1.1914,1.2002,1.2013,1.2018,1.1911,1.1908,1.1905,1.1902,0,0,1.3615,1.3381,1.3379,1.3305,1.313,1.3067,1.3004,1.2878,1.2831,1.2712,1.2652,1.251,1.2439,1.2352,1.2242,1.2211,1.2263,1.2136,1.2129,1.2164,1.223,1.2289,1.2299,1.2194,1.2194,1.2195,1.2242,0,1.3685,1.3575,1.3443,1.3375,1.3303,1.3151,1.3095,1.2979,1.2874,1.2791,1.267,1.2574,1.2487,1.2434,1.2396,1.2266,1.2273,1.2259,1.2128,1.2126,1.2174,1.2305,1.2367,1.242,1.2246,1.2247,1.2247,0,1.3752,1.3651,1.3579,1.3411,1.3375,1.333,1.3203,1.3128,1.2988,1.2913,1.282,1.2703,1.2621,1.2549,1.243,1.2424,1.2361,1.2288,1.2286,1.2268,1.2192,1.2289,1.2433,1.2441,1.2253,1.2252,1.2252,0,1.3911,1.3755,1.3692,1.3633,1.3436,1.3407,1.3321,1.3181,1.3113,1.2998,1.2951,1.2826,1.2756,1.2657,1.2507,1.2469,1.2403,1.2318,1.2333,1.2337,1.2325,1.2328,1.2462,1.2287,1.2287,1.2287,1.2287,0,1.4002,1.3963,1.3761,1.3722,1.3672,1.3517,1.3468,1.3368,1.3245,1.3177,1.3034,1.2972,1.2778,1.269,1.257,1.2489,1.2458,1.239,1.2358,1.2403,1.2412,1.2359,1.2351,1.2289,1.2288,1.2288,1.2288,0,1.4171,1.4035,1.3956,1.3778,1.3732,1.3703,1.3545,1.3497,1.3386,1.3302,1.3272,1.3094,1.2983,1.2825,1.2662,1.2581,1.2516,1.2466,1.2567,1.2548,1.2572,1.2572,1.2675,1.2679,1.2505,1.2507,1.2509,0,1.4239,1.4207,1.4028,1.3977,1.39,1.3819,1.3751,1.3594,1.3528,1.3368,1.3337,1.3218,1.3115,1.2943,1.2792,1.2666,1.2611,1.2656,1.259,1.2636,1.261,1.2614,1.2608,1.2671,1.2674,1.2676,1.2678,0,1.4373,1.4308,1.4221,1.411,1.4036,1.3938,1.3832,1.3796,1.3615,1.3546,1.3437,1.3358,1.3196,1.3077,1.2931,1.2832,1.2723,1.2701,1.2697,1.2742,1.2802,1.2768,1.2609,1.2698,1.2696,1.2695,1.2694,1.2693,1.4491,1.4456,1.4326,1.4233,1.4139,1.4044,1.3992,1.3876,1.3785,1.3649,1.3558,1.3453,1.3308,1.3104,1.301,1.2919,1.2874,1.2869,1.2867,1.2868,1.2884,1.2818,1.2891,1.289,1.2889,1.2889,1.2888,0,1.4618,1.4528,1.4444,1.4306,1.4231,1.4145,1.4023,1.3963,1.3876,1.3756,1.3659,1.3531,1.3414,1.3256,1.3126,1.3082,1.3029,1.3053,1.3054,1.3032,1.2932,1.2948,1.3099,1.3099,1.3099,1.3099,1.3099,1.3099,1.4675,1.4611,1.453,1.4415,1.4321,1.4225,1.4163,1.4072,1.3976,1.3843,1.3749,1.365,1.3512,1.3371,1.3257,1.3212,1.3169,1.321,1.3149,1.3058,1.3039,1.3021,1.3036,1.3202,1.3202,1.3256,1.3257,1.3258]},{"header":{"parameterUnit":"m.s-1","parameterCategory":1,"la1":30.2991,"la2":30.254,"lo1":-89.0895,"lo2":-89.0444,"dy":0.0017,"dx":0.0017,"nx":28,"ny":28,"refTime":"2025-07-29T09:00:00:Z","depth":0,"parameterNumber":3,"parameterNumberName":"V-component_of_WINDS"},"data":[0,0,0,0,0,0,0,0,0,0,0,0,0,0,0,0,0,0,0,0,0,0,0,0,0,0,0,0,0,0,0,0,0,0,0,0,0,0,0,0,0,0,0,0,0,0,0,0,0,0,0,0,0,0,0,0,0,0,0.2316,0.2316,0,0.2384,0.2385,0.2386,0.2385,0.2384,0.2383,0.2382,0.2468,0.2471,0.2474,0,0,0,0,0,0,0,0,0,0,0,0,0,0.2197,0.22,0.2315,0.2316,0.2317,0.2384,0.2385,0.2386,0.2385,0.2384,0.2383,0.2382,0.2467,0.247,0.2474,0,0,0,0,0,0,0,0,0,0,0,0,0,0.2256,0.22,0.2315,0.2324,0.2326,0.2384,0.2385,0.2386,0.2385,0.2384,0.2383,0.2381,0.2465,0.247,0.2475,0.2532,0,0,0.2489,0.2491,0,0,0,0,0,0,0,0,0.2253,0.226,0.2322,0.2324,0.2326,0.2374,0.2374,0.2436,0.2386,0.2363,0.2382,0.2381,0.2439,0.2446,0.2462,0.2536,0.254,0.249,0.2492,0.2494,0.2496,0,0,0,0,0,0,0,0.2249,0.2258,0.2343,0.2323,0.2325,0.233,0.2336,0.2386,0.2409,0.2365,0.2365,0.2373,0.244,0.2457,0.2464,0.2541,0.2489,0.2494,0.2497,0.2498,0.2668,0.2669,0,0,0,0,0,0,0.2241,0.2254,0.2341,0.2345,0.2284,0.2333,0.234,0.236,0.2408,0.2414,0.2374,0.2372,0.245,0.2459,0.2467,0.2538,0.2494,0.2499,0.2502,0.2666,0.2668,0.267,0,0,0,0,0,0,0.2238,0.2248,0.2338,0.2299,0.2311,0.2336,0.2359,0.2362,0.238,0.2414,0.242,0.2387,0.2449,0.246,0.2515,0.2541,0.2501,0.2505,0.2664,0.2667,0.2669,0.268,0,0,0,0,0,0,0.2235,0.2247,0.2266,0.23,0.2313,0.2381,0.236,0.2365,0.2386,0.2385,0.2428,0.2434,0.2449,0.2508,0.252,0.2547,0.2509,0.2662,0.2665,0.2668,0.2678,0.2683,0.2687,0,0,0,0,0,0.223,0.227,0.2267,0.2278,0.2337,0.2382,0.239,0.2402,0.2388,0.241,0.2432,0.2433,0.2536,0.2514,0.2527,0.2556,0.2661,0.2664,0.2668,0.2676,0.2682,0.2687,0,0,0,0,0,0,0.2245,0.2275,0.2272,0.2322,0.2349,0.2382,0.2409,0.2409,0.2444,0.2442,0.246,0.247,0.2524,0.2546,0.2521,0.2615,0.2597,0.2604,0.2598,0.2605,0.2609,0.2604,0.2513,0,0,0,0,0,0.2252,0.2282,0.2309,0.2351,0.2364,0.2384,0.2405,0.2411,0.2442,0.2454,0.248,0.2514,0.2554,0.2581,0.2619,0.268,0.2691,0.2707,0.2712,0.2715,0.2722,0.2757,0.2765,0.2682,0.2682,0.2682,0,0,0.2271,0.2291,0.231,0.2355,0.2376,0.2411,0.2394,0.2432,0.2459,0.2462,0.2513,0.2534,0.2573,0.2631,0.2658,0.2651,0.2746,0.272,0.2723,0.2727,0.2761,0.2769,0.2776,0.2685,0.2684,0.2684,0,0,0.2323,0.234,0.2377,0.2397,0.2428,0.2441,0.245,0.2482,0.2494,0.2545,0.2548,0.2584,0.2652,0.2679,0.2702,0.2763,0.2766,0.2776,0.2801,0.2835,0.2842,0.2848,0.2871,0.2879,0.2781,0.2782,0.2782,0,0.2344,0.2391,0.2398,0.2434,0.2455,0.2453,0.2493,0.2515,0.2559,0.2575,0.2564,0.2649,0.2676,0.274,0.2755,0.2773,0.2787,0.2772,0.2839,0.2845,0.2851,0.2874,0.2882,0.2782,0.2782,0.2782,0.2782,0,0.2416,0.2449,0.2476,0.2513,0.2537,0.2575,0.2591,0.2615,0.2619,0.2634,0.2688,0.2719,0.2764,0.278,0.2787,0.2846,0.284,0.2834,0.2818,0.286,0.2881,0.289,0.2784,0.2784,0.2783,0.2783,0,0,0.248,0.2517,0.2527,0.2544,0.2577,0.2605,0.2645,0.2683,0.2705,0.2735,0.2771,0.2828,0.2822,0.2848,0.2858,0.2888,0.2935,0.2879,0.288,0.2889,0.3005,0.301,0.302,0.2937,0.2938,0.294,0.3002,0,0.2536,0.26,0.2607,0.2666,0.2699,0.2698,0.2732,0.2759,0.2774,0.2808,0.2827,0.2867,0.2855,0.2871,0.29,0.2923,0.2959,0.2919,0.2975,0.2977,0.2965,0.3031,0.3036,0.3094,0.3011,0.3012,0.3013,0,0.261,0.2637,0.2698,0.2726,0.274,0.2771,0.2807,0.2837,0.2868,0.2878,0.2905,0.2911,0.2957,0.2936,0.3001,0.2973,0.2997,0.3012,0.3014,0.3022,0.2998,0.3041,0.3112,0.3121,0.3026,0.3025,0.3024,0,0.2652,0.2704,0.2747,0.2762,0.2795,0.2817,0.2833,0.2862,0.2885,0.2918,0.2934,0.2974,0.2997,0.303,0.3048,0.3031,0.3112,0.3093,0.3125,0.3124,0.3143,0.3142,0.3221,0.3156,0.3156,0.3156,0.3155,0,0.2714,0.2752,0.2766,0.2793,0.2837,0.2845,0.289,0.2906,0.2931,0.2965,0.2968,0.3,0.3021,0.3058,0.3073,0.3125,0.3136,0.3148,0.3152,0.3148,0.3147,0.3165,0.3162,0.3158,0.3157,0.3157,0.3157,0,0.2769,0.2779,0.2826,0.2853,0.286,0.2892,0.2917,0.2945,0.2959,0.3001,0.3012,0.3036,0.3079,0.3099,0.3155,0.3165,0.3225,0.3225,0.3212,0.3214,0.3245,0.3242,0.3339,0.3353,0.3278,0.3278,0.3279,0,0.2809,0.2837,0.2865,0.2885,0.29,0.2933,0.2954,0.2965,0.2988,0.3025,0.305,0.3092,0.3126,0.3196,0.3222,0.3264,0.3267,0.3298,0.3274,0.3269,0.3269,0.3268,0.3272,0.3303,0.3304,0.3304,0.3305,0,0.2879,0.2882,0.291,0.2941,0.2966,0.2992,0.3018,0.3035,0.305,0.3077,0.3118,0.3144,0.3197,0.324,0.3284,0.3306,0.331,0.3312,0.3322,0.3319,0.3311,0.3317,0.3225,0.331,0.331,0.3309,0.3309,0.3309,0.2928,0.2953,0.2976,0.3009,0.3028,0.3052,0.3079,0.3094,0.3127,0.3167,0.3173,0.3217,0.325,0.3308,0.3331,0.3369,0.3363,0.3377,0.3381,0.3385,0.3387,0.3302,0.3378,0.3378,0.3377,0.3377,0.3377,0,0.2999,0.3013,0.3042,0.3076,0.3102,0.3096,0.3125,0.3149,0.3186,0.3213,0.3244,0.3293,0.3334,0.3361,0.3404,0.343,0.3433,0.3441,0.3441,0.3446,0.339,0.3377,0.3438,0.3438,0.3438,0.3438,0.3438,0.3438,0.3039,0.3082,0.3088,0.3141,0.3156,0.3195,0.3212,0.3235,0.3256,0.3308,0.334,0.3355,0.3384,0.3429,0.3468,0.3475,0.3492,0.3501,0.3509,0.3456,0.345,0.3444,0.3432,0.3504,0.3504,0.3562,0.3563,0.3563]}]]